Tracking 19846 objects as of 19-Sep-2019
HD Live streaming from Space Station
objects crossing your sky now

OPS 9327 (IDSCS 14)

Track OPS 9327 (IDSCS 14) now!
OPS 9327 (IDSCS 14) is classified as:


NORAD ID: 2654
Int'l Code: 1967-003G
Perigee: 33,651.2 km
Apogee: 34,106.7 km
Inclination: 3.5 °
Period: 1,339.4 minutes
Semi major axis: 40249 km
RCS: 0.5011 m2 (medium)
Launch date: January 18, 1967
Source: United States (US)
Launch site: AIR FORCE EASTERN TEST RANGE (AFETR)
aabbcc
Your satellite tracking list
Your tracking list is empty




NASA's NSSDC Master Catalog

Two Line Element Set (TLE):
1  2654U 67003G   19261.60604803 -.00000101  00000-0  00000+0 0  9991
2  2654   3.5189  59.6871 0056581 350.4047 276.4609  1.07511402113043
Source of the keplerian elements: AFSPC